Flag for U.S.A. Weather past 2 weeks in Omaha, Nebraska, U.S.A.

Now
76 °F

Scattered clouds.


Feels Like: 78 °F
Forecast: 57 / 79 °F
Wind: 3 mph from North

Location: Millard Airport

Current Time: Jul 30, 2014 at 12:43:31 PM

Latest Report: Jul 30, 2014 at 12:15 PM


Visibility: 10 mi

Pressure: 30.15 "Hg

Humidity: 48%

Dew point: 55 °F

Location of OmahaLocation

Historic Weather in Omaha — Graph

°F

Omaha temperature yesterday

Maximum temperature yesterday: 78 °F (at 5:15 PM)
Minimum temperature yesterday: 58 °F (at 6:55 AM)
Average temperature yesterday: 69 °F

Past Weeks' High & Low Weather Summary

 TemperatureHumidityPressure
High96 °F (Jul 21, 4:55 PM)96% (Jul 30, 6:15 AM)30.27 "Hg (Jul 30, 6:15 AM)
Low54 °F (Jul 16, 5:55 AM)37% (Jul 17, 5:15 PM)29.72 "Hg (Jul 25, 1:55 PM)
Average74 °F68%30.02 "Hg
* Reported Jul 15 11:15 AM — Jul 30 11:55 AM, Omaha, Weather by CustomWeather, © 2014

Note: Actual official high and low records may vary slightly from our data, if they occured in-between our weather recording intervals... More about our weather records

Advertising

Omaha weather history for previous 24 hours

 ConditionsComfort  
Time TempWeatherWind HumidityBarometerVisibility
11:55 AM
Jul 30
74 °FScattered clouds.5 mph49%30.16 "Hg10 mi
11:15 AM76 °FSunny.3 mph50%30.16 "Hg10 mi
10:55 AM75 °FSunny.No wind53%30.16 "Hg10 mi
10:15 AM73 °FSunny.No wind56%30.15 "Hg10 mi
9:55 AM72 °FSunny.No wind61%30.15 "Hg10 mi
9:35 AM71 °FSunny.5 mph62%30.15 "Hg10 mi
9:15 AM69 °FSunny.No wind64%30.16 "Hg10 mi
8:55 AM68 °FSunny.No wind70%30.16 "Hg10 mi
8:35 AM66 °FSunny.No wind73%30.15 "Hg10 mi
8:15 AM64 °FSunny.No wind77%30.15 "Hg10 mi
7:55 AM62 °FSunny.No wind82%30.15 "Hg10 mi
7:35 AM60 °FSunny.No wind91%30.14 "Hg10 mi
7:15 AM58 °FClear.No wind91%30.14 "Hg10 mi
6:55 AM56 °FFog.No wind96%30.14 "Hg5 mi
6:35 AM56 °FFog.No wind95%30.14 "Hg4 mi
6:15 AM56 °FFog.No wind96%30.14 "Hg2 mi
5:55 AM57 °FFog.No wind95%30.14 "Hg5 mi
5:35 AM58 °FClear.No wind93%30.13 "Hg10 mi
5:15 AM58 °FClear.No wind93%30.13 "Hg10 mi
4:55 AM58 °FClear.No wind94%30.12 "Hg7 mi
4:35 AM58 °FClear.No wind94%30.12 "Hg7 mi
4:15 AM58 °FClear.No wind94%30.12 "Hg10 mi
3:55 AM59 °FClear.No wind94%30.12 "Hg7 mi
3:35 AM59 °FClear.No wind94%30.12 "Hg7 mi
3:15 AM59 °FClear.No wind92%30.12 "Hg10 mi
2:55 AM59 °FClear.No wind92%30.12 "Hg10 mi
2:35 AM59 °FClear.No wind94%30.12 "Hg10 mi
2:15 AM60 °FClear.No wind93%30.12 "Hg10 mi
1:55 AM60 °FClear.No wind92%30.13 "Hg10 mi
1:35 AM61 °FClear.No wind89%30.13 "Hg10 mi
1:15 AM61 °FClear.No wind90%30.14 "Hg10 mi
12:55 AM61 °FClear.No wind89%30.14 "Hg10 mi
12:35 AM62 °FClear.No wind85%30.14 "Hg10 mi
12:15 AM63 °FClear.No wind83%30.14 "Hg10 mi
11:55 PM
Jul 29
63 °FClear.No wind84%30.13 "Hg10 mi
11:35 PM64 °FClear.No wind80%30.13 "Hg10 mi
11:15 PM64 °FClear.No wind82%30.13 "Hg10 mi
10:55 PM65 °FClear.No wind80%30.14 "Hg10 mi
10:35 PM65 °FClear.No wind78%30.13 "Hg10 mi
10:15 PM66 °FClear.No wind76%30.13 "Hg10 mi
9:55 PM67 °FClear.No wind73%30.12 "Hg10 mi
9:15 PM71 °FSunny.No wind60%30.12 "Hg10 mi
8:55 PM72 °FSunny.No wind56%30.11 "Hg10 mi
8:15 PM72 °FSunny.No wind54%30.11 "Hg10 mi
7:55 PM74 °FSunny.No wind52%30.11 "Hg10 mi
7:35 PM75 °FSunny.No wind51%30.11 "Hg10 mi
7:15 PM75 °FSunny.No wind48%30.11 "Hg10 mi
6:55 PM76 °FSunny.6 mph48%30.11 "Hg10 mi
6:35 PM76 °FSunny.5 mph47%30.12 "Hg10 mi
6:15 PM76 °FSunny.6 mph48%30.12 "Hg10 mi
5:55 PM77 °FSunny.6 mph45%30.13 "Hg10 mi
5:35 PM77 °FScattered clouds.9 mph45%30.14 "Hg10 mi
5:15 PM78 °FScattered clouds.8 mph44%30.14 "Hg10 mi
4:55 PM77 °FSunny.6 mph42%30.14 "Hg10 mi
4:35 PM78 °FScattered clouds.7 mph43%30.14 "Hg10 mi
4:15 PM78 °FScattered clouds.5 mph46%30.15 "Hg10 mi
3:55 PM77 °FBroken clouds.5 mph48%30.16 "Hg10 mi
3:35 PM77 °FScattered clouds.12 mph48%30.16 "Hg10 mi
3:15 PM77 °FBroken clouds.3 mph48%30.16 "Hg10 mi
2:55 PM76 °FBroken clouds.5 mph49%30.17 "Hg10 mi
2:35 PM75 °FBroken clouds.5 mph51%30.17 "Hg10 mi
2:15 PM76 °FScattered clouds.No wind50%30.17 "Hg10 mi
1:55 PM77 °FScattered clouds.7 mph48%30.18 "Hg10 mi
1:35 PM76 °FScattered clouds.6 mph48%30.18 "Hg10 mi
1:15 PM76 °FScattered clouds.6 mph50%30.19 "Hg10 mi
12:55 PM75 °FBroken clouds.8 mph51%30.20 "Hg3 mi
12:35 PM75 °FBroken clouds.No wind49%30.20 "Hg10 mi
12:15 PM74 °FBroken clouds.5 mph49%30.21 "Hg10 mi
Weather by CustomWeather, © 2014

See weather overviewHow to use our weather pages